Location: *
(40.7873°S, 98.7174°E)
Time: 22:30:01
(UTC+00:00)

Cosmos 1153 Rocket - Pass Details

Date: 09 October 2022
Orbit: 953 x 1007 km, 82.9° (Epoch: 08 December)

Event Time Altitude Azimuth Distance (km) Brightness Sun altitude
Rises 17:44:42 0° 173° (S) 3,680 8.3 -42.2°
Reaches altitude 10° 17:48:07 10° 155° (SSE) 2,719 7.4 -42.0°
Enters shadow 17:51:30 18° 122° (ESE) 2,176 6.6 -41.9°
